Regional Weather Roundup
Issued by NWS

Home | Current Version | Previous Version | Graphics & Text | Print | Product List | Glossary On
Versions: 1 2 3 4 5 6 7 8 9 10 11 12 13 14 15 16 17 18 19 20 21 22 23 24 25 26 27 28 29 30 31 32 33 34 35 36 37 38 39 40 41 42 43 44 45 46 47 48 49 50
000
ASUS43 KLSX 222207
RWRMO

WEATHER SUMMARY FOR MISSOURI
NATIONAL WEATHER SERVICE SPRINGFIELD MO
500 PM CDT FRI MAY 22 2015

NOTE: "FAIR" INDICATES FEW OR NO CLOUDS BELOW 12,000 FEET WITH NO
       SIGNIFICANT WEATHER AND/OR OBSTRUCTIONS TO VISIBILITY.
       CURRENT SKY AND/OR WEATHER CONDITIONS ARE NOT AVAILABLE FOR
       CHILLICOTHE AND FARMINGTON.

MOZ001>031-035>038-043-044-053-054-222300-
...NORTHERN AND WESTERN MISSOURI...

CITY           SKY/WX    TMP DP  RH WIND       PRES   REMARKS
KANSAS CTY INT CLOUDY    65  47  52 S9        30.23S
KANSAS C DTWN  CLOUDY    66  46  48 S8        30.22S
LEE`S SUMMIT   CLOUDY    65  48  54 SE6       30.24R
ST JOSEPH      CLOUDY    66  48  52 E5        30.23S
CHILLICOTHE      N/A     69  55  60 CALM      30.24F
KIRKSVILLE     CLOUDY    67  53  61 SW6       30.24R

$$
MOZ066>068-077>081-088>096-101>105-222300-
...SOUTHWEST MISSOURI...

CITY           SKY/WX    TMP DP  RH WIND       PRES   REMARKS
SPRINGFIELD    CLOUDY    64  44  48 E14       30.21F
JOPLIN         CLOUDY    65  47  52 SE8       30.20F

$$
MOZ032>034-039>042-045>050-055>058-069>072-222300-
...CENTRAL MISSOURI...

CITY           SKY/WX    TMP DP  RH WIND       PRES   REMARKS
COLUMBIA       PTSUNNY   70  49  47 VRB5      30.24S
JEFFERSON CITY PTSUNNY   71  44  37 S5        30.23F
ROLLA          CLOUDY    69  52  54 SE7       30.23F
SEDALIA        CLOUDY    67  51  56 SE3       30.25F
WHITEMAN AFB   CLOUDY    66  51  59 SE5       30.22F
WARRENSBURG    DRIZZLE   64  50  59 E5        30.23S
OSAGE BEACH    CLOUDY    70  50  49 S5        30.25S

$$
MOZ051-052-059>065-222300-
...EAST CENTRAL MISSOURI...

CITY           SKY/WX    TMP DP  RH WIND       PRES   REMARKS
ST LOUIS INTL  CLOUDY    75  48  38 W10       30.24S
SPIRIT OF STL  PTSUNNY   74  50  42 W7        30.22F
ST CHARLES     CLOUDY    75  50  41 W12       30.22S

$$
MOZ072>076-082>087-097>100-106>115-222300-
...SOUTH CENTRAL AND SOUTHEAST MISSOURI...

CITY           SKY/WX    TMP DP  RH WIND       PRES   REMARKS
CAPE GIRARDEAU MOSUNNY   70  50  49 CALM      30.25F
FARMINGTON     CLOUDY    72  48  43 S5        30.29S
POPLAR BLUFF   CLOUDY    70  47  43 SE3       30.25S
WEST PLAINS    CLOUDY    65  46  50 SE3       30.27S

$$



USA.gov is the U.S. government's official web portal to all federal, state and local government web resources and services.